sat.trackr.live / text

‹ back to catalog

TIANMU-1 18

NORAD 58703 · 2024-004D

PAYLOAD ACTIVE UNKNOWN

§ Identity

Operator
Country
PRC
Launch date
2024-01-05
Launch site
JSC
Launch vehicle
Mass (kg)
RCS (m²)

Purposes: earth_obs

External: N2YO · Heavens-Above · Gunter

§ Orbital elements

Epoch: 2026-09-19T22:18:40.884768Z

Period
94.27 min
Inclination
97.4666°
Eccentricity
0.0005301
Mean motion
15.27483008 rev/d
Perigee alt
479.7 km
Apogee alt
487.0 km
Semi-major
6,861.5 km
B*
1.3270e-4
RAAN
89.1333°
Arg perigee
20.8394°
Mean anomaly
339.3061°
Rev number
15,023

§ Raw data

TIANMU-1 181 58703U 24004D   26262.92963987  .00003493  00000+0  13270-3 0  99982 58703  97.4666  89.1333 0005301  20.8394 339.3061 15.27483008150239

JSON: /api/v1/satellites/58703 · /tle

For live sub-satellite position, see the globe view (requires WebGL).

§ Visibility from observer

Set your observer location to see the next 7 days of passes ≥ 10°. The values pass through the URL so the page stays shareable.

No JS? Fill the form by hand. The geolocation button needs JavaScript.